| time (UTC) | temp C | wind direction | speed KPH | gust KPH | rain 1hr cm | rain 24hr cm | rain mn cm | humidity % | barometer mb |
| 20260510132511 | 7 | 306 | 0.0 | 1.6 | 0.00 | 0.00 | 0.00 | 99 | 1031.2 |
| 20260510132022 | 7 | 309 | 0.0 | 1.6 | 0.00 | 0.00 | 0.00 | 100 | 1031.2 |
| 20260510131522 | 7 | 107 | 0.0 | 1.6 | 0.00 | 0.00 | 0.00 | 100 | 1031.4 |
| 20260510131022 | 7 | 109 | 0.0 | 1.6 | 0.00 | 0.00 | 0.00 | 100 | 1031.4 |
| 20260510130522 | 7 | 113 | 0.0 | 1.6 | 0.00 | 0.00 | 0.00 | 100 | 1031.5 |
| 20260510130011 | 7 | 139 | 0.0 | 1.6 | 0.00 | 0.00 | 0.00 | 100 | 1031.5 |
| 20260510125522 | 7 | 0 | 0.0 | 0.0 | 0.00 | 0.00 | 0.00 | 100 | 1031.4 |
| 20260510125012 | 7 | 0 | 0.0 | 0.0 | 0.00 | 0.00 | 0.00 | 100 | 1031.4 |
| 20260510124522 | 7 | 293 | 0.0 | 1.6 | 0.00 | 0.00 | 0.00 | 100 | 1031.5 |
| 20260510124032 | 7 | 273 | 0.0 | 1.6 | 0.00 | 0.00 | 0.00 | 100 | 1031.5 |
| 20260510123521 | 7 | 231 | 0.0 | 3.2 | 0.00 | 0.00 | 0.00 | 100 | 1031.5 |
| 20260510123024 | 7 | 201 | 0.0 | 3.2 | 0.00 | 0.00 | 0.00 | 100 | 1031.4 |
| 20260510122512 | 7 | 134 | 0.0 | 3.2 | 0.00 | 0.00 | 0.00 | 100 | 1031.6 |
| 20260510122021 | 7 | 178 | 1.6 | 3.2 | 0.00 | 0.00 | 0.00 | 100 | 1031.5 |
| 20260510121511 | 7 | 164 | 0.0 | 1.6 | 0.00 | 0.00 | 0.00 | 100 | 1031.6 |
| 20260510121012 | 8 | 171 | 0.0 | 3.2 | 0.00 | 0.00 | 0.00 | 100 | 1031.5 |
| 20260510120522 | 8 | 187 | 0.0 | 3.2 | 0.00 | 0.00 | 0.00 | 100 | 1031.6 |
| 20260510120032 | 8 | 121 | 0.0 | 3.2 | 0.00 | 0.00 | 0.00 | 100 | 1031.6 |
| 20260510115521 | 8 | 98 | 0.0 | 1.6 | 0.00 | 0.00 | 0.00 | 100 | 1031.4 |
| 20260510115021 | 8 | 92 | 0.0 | 1.6 | 0.00 | 0.00 | 0.00 | 100 | 1031.4 |
| 20260510114521 | 8 | 0 | 0.0 | 0.0 | 0.00 | 0.00 | 0.00 | 100 | 1031.4 |
| 20260510114012 | 8 | 276 | 0.0 | 1.6 | 0.00 | 0.00 | 0.00 | 100 | 1031.5 |
| 20260510113521 | 8 | 222 | 0.0 | 1.6 | 0.00 | 0.00 | 0.00 | 100 | 1031.4 |
| 20260510113012 | 9 | 135 | 1.6 | 3.2 | 0.00 | 0.00 | 0.00 | 100 | 1031.4 |
| 20260510112522 | 9 | 131 | 1.6 | 4.8 | 0.00 | 0.00 | 0.00 | 98 | 1031.3 |
| 20260510112012 | 9 | 134 | 1.6 | 4.8 | 0.00 | 0.00 | 0.00 | 99 | 1031.1 |
| 20260510111512 | 9 | 107 | 1.6 | 4.8 | 0.00 | 0.00 | 0.00 | 99 | 1031.1 |
| 20260510111012 | 9 | 112 | 3.2 | 4.8 | 0.00 | 0.00 | 0.00 | 97 | 1031.0 |
| 20260510110515 | 10 | 134 | 3.2 | 4.8 | 0.00 | 0.00 | 0.00 | 95 | 1031.0 |
| 20260510110032 | 10 | 153 | 3.2 | 4.8 | 0.00 | 0.00 | 0.00 | 94 | 1030.9 |
| 20260510105511 | 10 | 218 | 3.2 | 4.8 | 0.00 | 0.00 | 0.00 | 95 | 1030.8 |
| 20260510105035 | 10 | 215 | 3.2 | 6.4 | 0.00 | 0.00 | 0.00 | 95 | 1030.8 |
| 20260510104513 | 11 | 180 | 3.2 | 6.4 | 0.00 | 0.00 | 0.00 | 92 | 1030.8 |
| 20260510104013 | 11 | 153 | 6.4 | 9.7 | 0.00 | 0.00 | 0.00 | 89 | 1030.7 |
| 20260510103521 | 11 | 148 | 6.4 | 11.3 | 0.00 | 0.00 | 0.00 | 89 | 1030.7 |
| 20260510103022 | 11 | 151 | 6.4 | 11.3 | 0.00 | 0.00 | 0.00 | 89 | 1030.8 |
| 20260510102512 | 11 | 143 | 8.0 | 12.9 | 0.00 | 0.00 | 0.00 | 87 | 1030.6 |
| 20260510102012 | 12 | 136 | 11.3 | 19.3 | 0.00 | 0.00 | 0.00 | 87 | 1030.6 |
| 20260510101511 | 12 | 135 | 11.3 | 19.3 | 0.00 | 0.00 | 0.00 | 85 | 1030.6 |
| 20260510101012 | 12 | 132 | 8.0 | 12.9 | 0.00 | 0.00 | 0.00 | 85 | 1030.5 |
| 20260510100521 | 12 | 134 | 6.4 | 12.9 | 0.00 | 0.00 | 0.00 | 84 | 1030.5 |
| 20260510100012 | 12 | 110 | 8.0 | 19.3 | 0.00 | 0.00 | 0.00 | 81 | 1030.5 |
| 20260510095511 | 12 | 111 | 9.7 | 19.3 | 0.00 | 0.00 | 0.00 | 81 | 1030.3 |
| 20260510095012 | 12 | 128 | 9.7 | 16.1 | 0.00 | 0.00 | 0.00 | 81 | 1030.3 |
| 20260510094522 | 12 | 121 | 9.7 | 16.1 | 0.00 | 0.00 | 0.00 | 80 | 1030.1 |
| 20260510094022 | 12 | 121 | 8.0 | 16.1 | 0.00 | 0.00 | 0.00 | 80 | 1030.2 |
| 20260510093512 | 12 | 130 | 8.0 | 16.1 | 0.00 | 0.00 | 0.00 | 80 | 1030.2 |
| 20260510093022 | 12 | 146 | 9.7 | 16.1 | 0.00 | 0.00 | 0.00 | 80 | 1030.0 |
| 20260510092522 | 12 | 147 | 6.4 | 11.3 | 0.00 | 0.00 | 0.00 | 79 | 1030.1 |
| 20260510092012 | 13 | 134 | 8.0 | 12.9 | 0.00 | 0.00 | 0.00 | 81 | 1030.0 |
| 20260510091512 | 13 | 120 | 8.0 | 12.9 | 0.00 | 0.00 | 0.00 | 81 | 1029.9 |
| 20260510091022 | 13 | 120 | 8.0 | 14.5 | 0.00 | 0.00 | 0.00 | 80 | 1029.9 |
| 20260510090522 | 13 | 132 | 8.0 | 14.5 | 0.00 | 0.00 | 0.00 | 80 | 1029.9 |
| 20260510090012 | 13 | 141 | 8.0 | 12.9 | 0.00 | 0.00 | 0.00 | 79 | 1029.8 |
| 20260510085522 | 13 | 144 | 8.0 | 12.9 | 0.00 | 0.00 | 0.00 | 78 | 1029.6 |
| 20260510085012 | 13 | 154 | 8.0 | 12.9 | 0.00 | 0.00 | 0.00 | 77 | 1029.4 |
| 20260510084521 | 13 | 158 | 6.4 | 9.7 | 0.00 | 0.00 | 0.00 | 76 | 1029.3 |
| 20260510084013 | 13 | 146 | 6.4 | 9.7 | 0.00 | 0.00 | 0.00 | 73 | 1029.2 |
| 20260510083512 | 14 | 140 | 6.4 | 9.7 | 0.00 | 0.00 | 0.00 | 70 | 1029.2 |
| 20260510083022 | 14 | 139 | 9.7 | 14.5 | 0.00 | 0.00 | 0.00 | 67 | 1029.1 |
| 20260510082511 | 14 | 135 | 8.0 | 14.5 | 0.00 | 0.00 | 0.00 | 66 | 1028.9 |
| 20260510082021 | 14 | 131 | 6.4 | 9.7 | 0.00 | 0.00 | 0.00 | 65 | 1028.7 |
| 20260510081521 | 14 | 82 | 4.8 | 8.0 | 0.00 | 0.00 | 0.00 | 65 | 1028.6 |
| 20260510081022 | 14 | 29 | 3.2 | 8.0 | 0.00 | 0.00 | 0.00 | 68 | 1028.4 |
| 20260510080524 | 13 | 316 | 3.2 | 4.8 | 0.00 | 0.00 | 0.00 | 71 | 1028.3 |
| 20260510080012 | 13 | 303 | 3.2 | 4.8 | 0.00 | 0.00 | 0.00 | 73 | 1028.3 |
| 20260510075511 | 13 | 293 | 3.2 | 4.8 | 0.00 | 0.00 | 0.00 | 74 | 1028.2 |
| 20260510075022 | 13 | 293 | 3.2 | 3.2 | 0.00 | 0.00 | 0.00 | 74 | 1028.1 |
| 20260510074512 | 13 | 293 | 3.2 | 4.8 | 0.00 | 0.00 | 0.00 | 75 | 1028.0 |
| 20260510074012 | 13 | 285 | 3.2 | 4.8 | 0.00 | 0.00 | 0.00 | 74 | 1027.9 |
| 20260510073521 | 13 | 284 | 3.2 | 4.8 | 0.00 | 0.00 | 0.00 | 74 | 1028.0 |
| 20260510073012 | 13 | 294 | 3.2 | 4.8 | 0.00 | 0.00 | 0.00 | 72 | 1027.7 |
| 20260510072511 | 13 | 298 | 3.2 | 4.8 | 0.00 | 0.00 | 0.00 | 71 | 1027.7 |
| 20260510072032 | 14 | 301 | 3.2 | 4.8 | 0.00 | 0.00 | 0.00 | 72 | 1027.6 |
| 20260510071522 | 14 | 306 | 3.2 | 4.8 | 0.00 | 0.00 | 0.00 | 71 | 1027.5 |
| 20260510071012 | 14 | 305 | 1.6 | 3.2 | 0.00 | 0.00 | 0.00 | 71 | 1027.3 |
| 20260510070511 | 15 | 308 | 3.2 | 4.8 | 0.00 | 0.00 | 0.00 | 67 | 1027.4 |
| 20260510070021 | 15 | 333 | 3.2 | 4.8 | 0.00 | 0.00 | 0.00 | 65 | 1027.4 |
| 20260510065512 | 16 | 9 | 3.2 | 6.4 | 0.00 | 0.00 | 0.00 | 60 | 1027.3 |
| 20260510065012 | 17 | 15 | 3.2 | 6.4 | 0.00 | 0.00 | 0.00 | 56 | 1027.2 |
| 20260510064512 | 17 | 57 | 4.8 | 6.4 | 0.00 | 0.00 | 0.00 | 54 | 1027.2 |
| 20260510064023 | 17 | 3 | 4.8 | 8.0 | 0.00 | 0.00 | 0.00 | 52 | 1027.1 |
| 20260510063522 | 17 | 5 | 4.8 | 8.0 | 0.00 | 0.00 | 0.00 | 52 | 1027.1 |
| 20260510063021 | 17 | 2 | 4.8 | 6.4 | 0.00 | 0.00 | 0.00 | 52 | 1027.1 |
| 20260510062511 | 17 | 356 | 3.2 | 6.4 | 0.00 | 0.00 | 0.00 | 55 | 1026.9 |
| 20260510062012 | 18 | 0 | 4.8 | 8.0 | 0.00 | 0.00 | 0.00 | 53 | 1026.9 |
| 20260510061522 | 18 | 1 | 4.8 | 8.0 | 0.00 | 0.00 | 0.00 | 51 | 1026.9 |
| 20260510061012 | 18 | 348 | 4.8 | 6.4 | 0.00 | 0.00 | 0.00 | 52 | 1026.8 |
| 20260510060512 | 18 | 346 | 4.8 | 6.4 | 0.00 | 0.00 | 0.00 | 50 | 1026.8 |
| 20260510060022 | 18 | 355 | 4.8 | 6.4 | 0.00 | 0.00 | 0.00 | 49 | 1026.8 |
| 20260510055521 | 18 | 351 | 3.2 | 6.4 | 0.00 | 0.00 | 0.00 | 50 | 1026.9 |
| 20260510055012 | 18 | 331 | 4.8 | 9.7 | 0.00 | 0.00 | 0.00 | 48 | 1026.8 |
| 20260510054512 | 18 | 321 | 4.8 | 9.7 | 0.00 | 0.00 | 0.00 | 47 | 1026.7 |
| 20260510054012 | 19 | 313 | 6.4 | 9.7 | 0.00 | 0.00 | 0.00 | 51 | 1026.9 |
| 20260510053512 | 19 | 329 | 6.4 | 8.0 | 0.00 | 0.00 | 0.00 | 49 | 1026.8 |
| 20260510053012 | 19 | 330 | 6.4 | 8.0 | 0.00 | 0.00 | 0.00 | 48 | 1026.7 |
| 20260510052512 | 19 | 315 | 6.4 | 9.7 | 0.00 | 0.00 | 0.00 | 48 | 1026.7 |
| 20260510052022 | 20 | 330 | 6.4 | 9.7 | 0.00 | 0.00 | 0.00 | 47 | 1026.7 |
| 20260510051522 | 20 | 348 | 6.4 | 9.7 | 0.00 | 0.00 | 0.00 | 45 | 1026.7 |
| 20260510051021 | 20 | 354 | 4.8 | 9.7 | 0.00 | 0.00 | 0.00 | 45 | 1026.6 |
| 20260510050512 | 20 | 359 | 6.4 | 9.7 | 0.00 | 0.00 | 0.00 | 44 | 1026.6 |
| 20260510050011 | 20 | 359 | 6.4 | 11.3 | 0.00 | 0.00 | 0.00 | 40 | 1026.6 |
| 20260510045522 | 20 | 325 | 8.0 | 14.5 | 0.00 | 0.00 | 0.00 | 39 | 1026.6 |
| 20260510045012 | 20 | 312 | 8.0 | 14.5 | 0.00 | 0.00 | 0.00 | 41 | 1026.6 |
| 20260510044512 | 20 | 342 | 4.8 | 8.0 | 0.00 | 0.00 | 0.00 | 39 | 1026.4 |
| 20260510044033 | 20 | 3 | 4.8 | 8.0 | 0.00 | 0.00 | 0.00 | 39 | 1026.6 |
| 20260510043521 | 19 | 7 | 6.4 | 8.0 | 0.00 | 0.00 | 0.00 | 44 | 1026.5 |
| 20260510043022 | 20 | 2 | 6.4 | 9.7 | 0.00 | 0.00 | 0.00 | 37 | 1026.6 |
| 20260510042511 | 20 | 351 | 8.0 | 12.9 | 0.00 | 0.00 | 0.00 | 39 | 1026.6 |
| 20260510042012 | 20 | 339 | 6.4 | 12.9 | 0.00 | 0.00 | 0.00 | 37 | 1026.5 |
| 20260510041531 | 20 | 338 | 4.8 | 8.0 | 0.00 | 0.00 | 0.00 | 37 | 1026.6 |
| 20260510041012 | 20 | 332 | 4.8 | 8.0 | 0.00 | 0.00 | 0.00 | 39 | 1026.6 |
| 20260510040532 | 19 | 322 | 6.4 | 14.5 | 0.00 | 0.00 | 0.00 | 43 | 1026.6 |
| 20260510040032 | 19 | 320 | 9.7 | 14.5 | 0.00 | 0.00 | 0.00 | 43 | 1026.6 |
| 20260510035511 | 19 | 323 | 9.7 | 14.5 | 0.00 | 0.00 | 0.00 | 45 | 1026.7 |
| 20260510035031 | 20 | 322 | 8.0 | 9.7 | 0.00 | 0.00 | 0.00 | 43 | 1026.9 |
| 20260510034542 | 20 | 336 | 6.4 | 9.7 | 0.00 | 0.00 | 0.00 | 43 | 1026.7 |
| 20260510034025 | 19 | 334 | 8.0 | 9.7 | 0.00 | 0.00 | 0.00 | 41 | 1026.8 |
| 20260510033512 | 19 | 322 | 8.0 | 9.7 | 0.00 | 0.00 | 0.00 | 39 | 1026.7 |
| 20260510033012 | 19 | 328 | 6.4 | 9.7 | 0.00 | 0.00 | 0.00 | 38 | 1026.8 |
| 20260510032511 | 19 | 14 | 3.2 | 6.4 | 0.00 | 0.00 | 0.00 | 41 | 1027.0 |
| 20260510032012 | 19 | 353 | 8.0 | 12.9 | 0.00 | 0.00 | 0.00 | 40 | 1026.9 |
| 20260510031511 | 19 | 323 | 6.4 | 12.9 | 0.00 | 0.00 | 0.00 | 41 | 1026.9 |
| 20260510031031 | 19 | 319 | 6.4 | 12.9 | 0.00 | 0.00 | 0.00 | 44 | 1026.9 |
| 20260510030521 | 18 | 331 | 8.0 | 11.3 | 0.00 | 0.00 | 0.00 | 46 | 1026.9 |
| 20260510030012 | 18 | 318 | 8.0 | 12.9 | 0.00 | 0.00 | 0.00 | 46 | 1027.1 |
| 20260510025521 | 18 | 302 | 8.0 | 12.9 | 0.00 | 0.00 | 0.00 | 48 | 1027.0 |
| 20260510025042 | 18 | 305 | 8.0 | 9.7 | 0.00 | 0.00 | 0.00 | 49 | 1027.2 |
| 20260510024511 | 17 | 315 | 8.0 | 14.5 | 0.00 | 0.00 | 0.00 | 52 | 1027.2 |
| 20260510024013 | 18 | 326 | 9.7 | 14.5 | 0.00 | 0.00 | 0.00 | 50 | 1027.3 |
| 20260510023522 | 18 | 344 | 9.7 | 14.5 | 0.00 | 0.00 | 0.00 | 46 | 1027.4 |
| 20260510023022 | 18 | 319 | 8.0 | 12.9 | 0.00 | 0.00 | 0.00 | 49 | 1027.7 |
| 20260510022522 | 17 | 309 | 9.7 | 12.9 | 0.00 | 0.00 | 0.00 | 52 | 1027.7 |
| 20260510022045 | 18 | 323 | 8.0 | 12.9 | 0.00 | 0.00 | 0.00 | 49 | 1027.8 |
| 20260510021521 | 18 | 358 | 3.2 | 9.7 | 0.00 | 0.00 | 0.00 | 46 | 1027.8 |
| 20260510021021 | 18 | 352 | 6.4 | 11.3 | 0.00 | 0.00 | 0.00 | 50 | 1027.9 |
| 20260510020523 | 17 | 327 | 8.0 | 12.9 | 0.00 | 0.00 | 0.00 | 49 | 1028.0 |
| 20260510020012 | 17 | 307 | 8.0 | 12.9 | 0.00 | 0.00 | 0.00 | 52 | 1028.0 |
| 20260510015521 | 17 | 321 | 8.0 | 12.9 | 0.00 | 0.00 | 0.00 | 54 | 1028.1 |
| 20260510015012 | 17 | 322 | 6.4 | 12.9 | 0.00 | 0.00 | 0.00 | 54 | 1028.2 |
| 20260510014511 | 17 | 318 | 8.0 | 12.9 | 0.00 | 0.00 | 0.00 | 55 | 1028.2 |
| 20260510014022 | 16 | 322 | 9.7 | 14.5 | 0.00 | 0.00 | 0.00 | 52 | 1028.3 |
| 20260510013512 | 16 | 319 | 8.0 | 14.5 | 0.00 | 0.00 | 0.00 | 51 | 1028.3 |
| 20260510013012 | 16 | 307 | 6.4 | 9.7 | 0.00 | 0.00 | 0.00 | 52 | 1028.5 |
| 20260510012512 | 16 | 161 | 3.2 | 4.8 | 0.00 | 0.00 | 0.00 | 55 | 1028.4 |
| 20260510012012 | 16 | 255 | 4.8 | 8.0 | 0.00 | 0.00 | 0.00 | 57 | 1028.4 |
| 20260510011521 | 15 | 305 | 4.8 | 9.7 | 0.00 | 0.00 | 0.00 | 57 | 1028.5 |
| 20260510011021 | 15 | 332 | 6.4 | 9.7 | 0.00 | 0.00 | 0.00 | 59 | 1028.7 |
| 20260510010522 | 15 | 338 | 6.4 | 9.7 | 0.00 | 0.00 | 0.00 | 56 | 1028.6 |
| 20260510010012 | 15 | 304 | 6.4 | 9.7 | 0.00 | 0.00 | 0.00 | 57 | 1028.7 |
| 20260510005512 | 15 | 298 | 4.8 | 6.4 | 0.00 | 0.00 | 0.00 | 55 | 1028.6 |
| 20260510005022 | 14 | 302 | 4.8 | 8.0 | 0.00 | 0.00 | 0.00 | 57 | 1028.7 |
| 20260510004511 | 14 | 299 | 6.4 | 9.7 | 0.00 | 0.00 | 0.00 | 60 | 1028.8 |
| 20260510004012 | 13 | 295 | 6.4 | 9.7 | 0.00 | 0.00 | 0.00 | 61 | 1028.6 |
| 20260510003522 | 13 | 291 | 4.8 | 8.0 | 0.00 | 0.00 | 0.00 | 62 | 1028.7 |
| 20260510003022 | 13 | 286 | 3.2 | 6.4 | 0.00 | 0.00 | 0.00 | 61 | 1028.8 |
| 20260510002521 | 13 | 290 | 3.2 | 6.4 | 0.00 | 0.00 | 0.00 | 61 | 1028.7 |
| 20260510002023 | 13 | 323 | 3.2 | 6.4 | 0.00 | 0.00 | 0.00 | 61 | 1028.7 |
| 20260510001534 | 12 | 317 | 3.2 | 6.4 | 0.00 | 0.00 | 0.00 | 64 | 1028.7 |
| 20260510001022 | 12 | 293 | 3.2 | 6.4 | 0.00 | 0.00 | 0.00 | 63 | 1028.7 |
| 20260510000521 | 12 | 293 | 4.8 | 6.4 | 0.00 | 0.00 | 0.00 | 65 | 1028.6 |
| 20260510000022 | 12 | 279 | 3.2 | 6.4 | 0.00 | 0.00 | 0.00 | 65 | 1028.8 |
| 20260509235511 | 11 | 276 | 4.8 | 9.7 | 0.00 | 0.00 | 0.00 | 69 | 1028.7 |
| 20260509235021 | 11 | 325 | 4.8 | 9.7 | 0.00 | 0.00 | 0.00 | 68 | 1028.7 |
| 20260509234522 | 11 | 329 | 4.8 | 9.7 | 0.00 | 0.00 | 0.00 | 70 | 1028.7 |
| 20260509234012 | 11 | 311 | 1.6 | 4.8 | 0.00 | 0.00 | 0.00 | 72 | 1028.8 |
| 20260509233512 | 10 | 272 | 1.6 | 4.8 | 0.00 | 0.00 | 0.00 | 73 | 1028.7 |
| 20260509233012 | 10 | 304 | 1.6 | 4.8 | 0.00 | 0.00 | 0.00 | 75 | 1028.7 |
| 20260509232558 | 10 | 333 | 1.6 | 4.8 | 0.00 | 0.00 | 0.00 | 76 | 1028.7 |
| 20260509232012 | 10 | 313 | 1.6 | 3.2 | 0.00 | 0.00 | 0.00 | 77 | 1028.7 |
| 20260509231512 | 9 | 104 | 1.6 | 3.2 | 0.00 | 0.00 | 0.00 | 78 | 1028.8 |
| 20260509231022 | 9 | 84 | 1.6 | 3.2 | 0.00 | 0.00 | 0.00 | 82 | 1028.8 |
| 20260509230513 | 9 | 356 | 1.6 | 3.2 | 0.00 | 0.00 | 0.00 | 82 | 1028.7 |
| 20260509230011 | 8 | 134 | 1.6 | 3.2 | 0.00 | 0.00 | 0.00 | 80 | 1029.0 |
| 20260509225512 | 8 | 176 | 1.6 | 3.2 | 0.00 | 0.00 | 0.00 | 81 | 1028.8 |
| 20260509225012 | 8 | 132 | 1.6 | 3.2 | 0.00 | 0.00 | 0.00 | 84 | 1028.8 |
| 20260509224512 | 8 | 123 | 1.6 | 3.2 | 0.00 | 0.00 | 0.00 | 84 | 1028.8 |
| 20260509224012 | 8 | 31 | 1.6 | 3.2 | 0.00 | 0.00 | 0.00 | 81 | 1028.8 |
| 20260509223522 | 8 | 24 | 1.6 | 3.2 | 0.00 | 0.00 | 0.00 | 81 | 1028.7 |
| 20260509223022 | 7 | 196 | 1.6 | 3.2 | 0.00 | 0.00 | 0.00 | 83 | 1028.7 |
| 20260509222512 | 7 | 109 | 1.6 | 3.2 | 0.00 | 0.00 | 0.00 | 82 | 1028.7 |
| 20260509222022 | 7 | 148 | 1.6 | 3.2 | 0.00 | 0.00 | 0.00 | 83 | 1028.7 |
| 20260509221522 | 7 | 249 | 1.6 | 3.2 | 0.00 | 0.00 | 0.00 | 81 | 1028.6 |
| 20260509221021 | 7 | 327 | 1.6 | 3.2 | 0.00 | 0.00 | 0.00 | 83 | 1028.6 |
| 20260509220512 | 6 | 120 | 1.6 | 3.2 | 0.00 | 0.00 | 0.00 | 85 | 1028.6 |
| 20260509220022 | 6 | 145 | 1.6 | 3.2 | 0.00 | 0.00 | 0.00 | 89 | 1028.5 |
| 20260509215521 | 5 | 124 | 1.6 | 3.2 | 0.00 | 0.00 | 0.00 | 91 | 1028.5 |
| 20260509215011 | 5 | 112 | 1.6 | 3.2 | 0.00 | 0.00 | 0.00 | 100 | 1028.5 |
| 20260509214512 | 4 | 99 | 0.0 | 1.6 | 0.00 | 0.00 | 0.00 | 100 | 1028.4 |
| 20260509214022 | 3 | 135 | 0.0 | 3.2 | 0.00 | 0.00 | 0.00 | 100 | 1028.4 |
| 20260509213511 | 3 | 232 | 0.0 | 3.2 | 0.00 | 0.00 | 0.00 | 100 | 1028.3 |
| 20260509213022 | 2 | 303 | 1.6 | 3.2 | 0.00 | 0.00 | 0.00 | 100 | 1028.4 |
| 20260509212511 | 2 | 313 | 1.6 | 1.6 | 0.00 | 0.00 | 0.00 | 100 | 1028.0 |
| 20260509212022 | 2 | 23 | 0.0 | 3.2 | 0.00 | 0.00 | 0.00 | 100 | 1028.1 |
| 20260509211532 | 2 | 118 | 1.6 | 3.2 | 0.00 | 0.00 | 0.00 | 100 | 1028.0 |
| 20260509211012 | 2 | 123 | 1.6 | 3.2 | 0.00 | 0.00 | 0.00 | 100 | 1027.9 |
| 20260509210512 | 2 | 84 | 0.0 | 3.2 | 0.00 | 0.00 | 0.00 | 100 | 1027.9 |
| 20260509210012 | 2 | 102 | 1.6 | 3.2 | 0.00 | 0.00 | 0.00 | 100 | 1027.8 |
| 20260509205521 | 2 | 130 | 3.2 | 6.4 | 0.00 | 0.00 | 0.00 | 100 | 1027.8 |
| 20260509205011 | 3 | 130 | 3.2 | 6.4 | 0.00 | 0.00 | 0.00 | 100 | 1027.6 |
| 20260509204512 | 2 | 129 | 3.2 | 6.4 | 0.00 | 0.00 | 0.00 | 100 | 1027.6 |
| 20260509204022 | 2 | 128 | 1.6 | 4.8 | 0.00 | 0.00 | 0.00 | 100 | 1027.5 |
| 20260509203511 | 1 | 118 | 1.6 | 3.2 | 0.00 | 0.00 | 0.00 | 100 | 1027.4 |
| 20260509203012 | 1 | 114 | 1.6 | 3.2 | 0.00 | 0.00 | 0.00 | 100 | 1027.4 |
| 20260509202522 | 1 | 117 | 0.0 | 1.6 | 0.00 | 0.00 | 0.00 | 100 | 1027.3 |
| 20260509202022 | 1 | 136 | 0.0 | 1.6 | 0.00 | 0.00 | 0.00 | 100 | 1027.4 |
| 20260509201522 | 1 | 122 | 0.0 | 1.6 | 0.00 | 0.00 | 0.00 | 100 | 1027.3 |
| 20260509201022 | 1 | 120 | 0.0 | 3.2 | 0.00 | 0.00 | 0.00 | 100 | 1027.1 |
| 20260509200615 | 1 | 115 | 1.6 | 3.2 | 0.00 | 0.00 | 0.00 | 100 | 1027.1 |
| 20260509200022 | 2 | 115 | 1.6 | 3.2 | 0.00 | 0.00 | 0.00 | 100 | 1027.0 |
| 20260509195521 | 2 | 117 | 1.6 | 3.2 | 0.00 | 0.00 | 0.00 | 100 | 1027.0 |
| 20260509195022 | 2 | 282 | 0.0 | 3.2 | 0.00 | 0.00 | 0.00 | 99 | 1026.9 |
| 20260509194555 | 2 | 287 | 0.0 | 1.6 | 0.00 | 0.00 | 0.00 | 100 | 1026.8 |
| 20260509194012 | 2 | 327 | 0.0 | 1.6 | 0.00 | 0.00 | 0.00 | 100 | 1026.9 |
| 20260509193522 | 2 | 78 | 1.6 | 1.6 | 0.00 | 0.00 | 0.00 | 99 | 1026.8 |
| 20260509193023 | 2 | 99 | 1.6 | 1.6 | 0.00 | 0.00 | 0.00 | 100 | 1026.9 |
| 20260509192522 | 2 | 98 | 1.6 | 1.6 | 0.00 | 0.00 | 0.00 | 100 | 1026.7 |
| 20260509192024 | 2 | 271 | 1.6 | 3.2 | 0.00 | 0.00 | 0.00 | 100 | 1026.7 |
| 20260509191512 | 2 | 272 | 1.6 | 3.2 | 0.00 | 0.00 | 0.00 | 100 | 1026.6 |
| 20260509191022 | 2 | 252 | 1.6 | 1.6 | 0.00 | 0.00 | 0.00 | 100 | 1026.5 |
| 20260509190519 | 1 | 125 | 1.6 | 3.2 | 0.00 | 0.00 | 0.00 | 100 | 1026.4 |
| 20260509190012 | 1 | 107 | 1.6 | 3.2 | 0.00 | 0.00 | 0.00 | 100 | 1026.4 |
| 20260509185522 | 1 | 63 | 1.6 | 3.2 | 0.00 | 0.00 | 0.00 | 100 | 1026.3 |
| 20260509185022 | 1 | 295 | 1.6 | 3.2 | 0.00 | 0.00 | 0.00 | 100 | 1026.3 |
| 20260509184512 | 2 | 297 | 0.0 | 3.2 | 0.00 | 0.00 | 0.00 | 100 | 1026.3 |
| 20260509184012 | 2 | 125 | 0.0 | 1.6 | 0.00 | 0.00 | 0.00 | 100 | 1026.3 |
| 20260509183512 | 2 | 126 | 0.0 | 1.6 | 0.00 | 0.00 | 0.00 | 100 | 1026.2 |
| 20260509183012 | 2 | 46 | 0.0 | 3.2 | 0.00 | 0.00 | 0.00 | 100 | 1026.2 |
| 20260509182522 | 1 | 1 | 0.0 | 3.2 | 0.00 | 0.00 | 0.00 | 100 | 1026.2 |
| 20260509182024 | 1 | 15 | 0.0 | 1.6 | 0.00 | 0.00 | 0.00 | 100 | 1026.0 |
| 20260509181512 | 2 | 350 | 0.0 | 1.6 | 0.00 | 0.00 | 0.00 | 100 | 1026.0 |
| 20260509181012 | 2 | 306 | 0.0 | 1.6 | 0.00 | 0.00 | 0.00 | 100 | 1026.0 |
| 20260509180522 | 2 | 260 | 0.0 | 1.6 | 0.00 | 0.00 | 0.00 | 100 | 1026.0 |
| 20260509180012 | 2 | 255 | 0.0 | 1.6 | 0.00 | 0.00 | 0.00 | 100 | 1025.9 |
| 20260509175522 | 2 | 162 | 0.0 | 1.6 | 0.00 | 0.00 | 0.00 | 100 | 1025.8 |
| 20260509175011 | 2 | 73 | 1.6 | 1.6 | 0.00 | 0.00 | 0.00 | 100 | 1025.8 |
| 20260509174523 | 2 | 35 | 0.0 | 3.2 | 0.00 | 0.00 | 0.00 | 100 | 1025.7 |
| 20260509174024 | 2 | 96 | 0.0 | 3.2 | 0.00 | 0.00 | 0.00 | 100 | 1025.6 |
| 20260509173537 | 2 | 64 | 0.0 | 1.6 | 0.00 | 0.00 | 0.00 | 100 | 1025.7 |
| 20260509173012 | 2 | 328 | 0.0 | 1.6 | 0.00 | 0.00 | 0.00 | 100 | 1025.8 |
| 20260509172522 | 2 | 12 | 0.0 | 1.6 | 0.00 | 0.00 | 0.00 | 100 | 1025.8 |
| 20260509172013 | 2 | 125 | 0.0 | 1.6 | 0.00 | 0.00 | 0.00 | 100 | 1025.8 |
| 20260509171513 | 2 | 137 | 0.0 | 1.6 | 0.00 | 0.00 | 0.00 | 100 | 1025.8 |
| 20260509171013 | 2 | 0 | 0.0 | 0.0 | 0.00 | 0.00 | 0.00 | 100 | 1025.8 |
| 20260509170512 | 2 | 0 | 0.0 | 0.0 | 0.00 | 0.00 | 0.00 | 100 | 1025.9 |
| 20260509170014 | 2 | 360 | 0.0 | 1.6 | 0.00 | 0.00 | 0.00 | 100 | 1025.8 |
| 20260509165512 | 2 | 54 | 0.0 | 1.6 | 0.00 | 0.00 | 0.00 | 100 | 1025.8 |
| 20260509165023 | 2 | 118 | 0.0 | 1.6 | 0.00 | 0.00 | 0.00 | 100 | 1025.8 |
| 20260509164513 | 2 | 151 | 0.0 | 1.6 | 0.00 | 0.00 | 0.00 | 100 | 1025.8 |
| 20260509164023 | 3 | 215 | 0.0 | 1.6 | 0.00 | 0.00 | 0.00 | 100 | 1025.8 |
| 20260509163522 | 3 | 320 | 0.0 | 1.6 | 0.00 | 0.00 | 0.00 | 100 | 1025.8 |
| 20260509163027 | 3 | 333 | 0.0 | 1.6 | 0.00 | 0.00 | 0.00 | 100 | 1025.7 |
| 20260509162513 | 3 | 137 | 0.0 | 1.6 | 0.00 | 0.00 | 0.00 | 100 | 1025.6 |
| 20260509162034 | 3 | 0 | 0.0 | 0.0 | 0.00 | 0.00 | 0.00 | 100 | 1025.7 |
| 20260509161523 | 3 | 5 | 0.0 | 3.2 | 0.00 | 0.00 | 0.00 | 100 | 1025.7 |
| 20260509161016 | 3 | 29 | 0.0 | 3.2 | 0.00 | 0.00 | 0.00 | 100 | 1025.7 |
| 20260509160524 | 3 | 133 | 1.6 | 3.2 | 0.00 | 0.00 | 0.00 | 100 | 1025.7 |
| 20260509160016 | 3 | 136 | 1.6 | 3.2 | 0.00 | 0.00 | 0.00 | 100 | 1025.7 |
| 20260509155551 | 3 | 339 | 1.6 | 3.2 | 0.00 | 0.00 | 0.00 | 99 | 1025.7 |
| 20260509155019 | 3 | 336 | 1.6 | 3.2 | 0.00 | 0.00 | 0.00 | 100 | 1025.9 |
| 20260509153028 | 3 | 341 | 1.6 | 3.2 | 0.00 | 0.00 | 0.00 | 100 | 1026.0 |
| 20260509152522 | 3 | 15 | 0.0 | 1.6 | 0.00 | 0.00 | 0.00 | 100 | 1025.9 |
| 20260509152030 | 3 | 104 | 1.6 | 3.2 | 0.00 | 0.00 | 0.00 | 100 | 1025.9 |
| 20260509151532 | 3 | 124 | 1.6 | 3.2 | 0.00 | 0.00 | 0.00 | 100 | 1026.0 |
| 20260509151046 | 3 | 184 | 0.0 | 1.6 | 0.00 | 0.00 | 0.00 | 100 | 1025.8 |
| 20260509150523 | 3 | 240 | 1.6 | 3.2 | 0.00 | 0.00 | 0.00 | 100 | 1025.8 |
| 20260509150012 | 3 | 282 | 1.6 | 3.2 | 0.00 | 0.00 | 0.00 | 100 | 1025.9 |
| 20260509145513 | 3 | 323 | 1.6 | 3.2 | 0.00 | 0.00 | 0.00 | 100 | 1025.8 |
| 20260509145023 | 4 | 337 | 1.6 | 3.2 | 0.00 | 0.00 | 0.00 | 100 | 1025.9 |
| 20260509144523 | 4 | 131 | 0.0 | 1.6 | 0.00 | 0.00 | 0.00 | 100 | 1025.8 |
| 20260509144022 | 4 | 118 | 0.0 | 3.2 | 0.00 | 0.00 | 0.00 | 100 | 1025.8 |
| 20260509143523 | 4 | 121 | 0.0 | 3.2 | 0.00 | 0.00 | 0.00 | 100 | 1025.8 |
| 20260509143014 | 4 | 89 | 1.6 | 3.2 | 0.00 | 0.00 | 0.00 | 100 | 1025.9 |
| 20260509142512 | 4 | 326 | 1.6 | 4.8 | 0.00 | 0.00 | 0.00 | 100 | 1025.8 |
| 20260509142013 | 4 | 321 | 1.6 | 4.8 | 0.00 | 0.00 | 0.00 | 100 | 1025.8 |
| 20260509141512 | 3 | 345 | 1.6 | 4.8 | 0.00 | 0.00 | 0.00 | 100 | 1025.8 |
| 20260509141015 | 4 | 14 | 0.0 | 1.6 | 0.00 | 0.00 | 0.00 | 100 | 1025.8 |
| 20260509140514 | 4 | 310 | 0.0 | 1.6 | 0.00 | 0.00 | 0.00 | 100 | 1025.8 |
| 20260509140027 | 5 | 345 | 0.0 | 1.6 | 0.00 | 0.00 | 0.00 | 100 | 1025.8 |
| 20260509135513 | 5 | 339 | 0.0 | 1.6 | 0.00 | 0.00 | 0.00 | 100 | 1025.7 |
| 20260509135022 | 5 | 321 | 1.6 | 3.2 | 0.00 | 0.00 | 0.00 | 100 | 1025.7 |
| 20260509134515 | 5 | 327 | 1.6 | 3.2 | 0.00 | 0.00 | 0.00 | 100 | 1025.8 |
| 20260509134013 | 5 | 131 | 0.0 | 1.6 | 0.00 | 0.00 | 0.00 | 100 | 1025.8 |
| 20260509133513 | 5 | 182 | 0.0 | 1.6 | 0.00 | 0.00 | 0.00 | 100 | 1025.9 |
| 20260509133027 | 5 | 264 | 0.0 | 1.6 | 0.00 | 0.00 | 0.00 | 100 | 1025.8 |